TimeCST,TemperatureF,Dew PointF,Humidity,Sea Level PressureIn,VisibilityMPH,Wind Direction,Wind SpeedMPH,Gust SpeedMPH,PrecipitationIn,Events,Conditions,WindDirDegrees,DateUTC
12:15 AM,61.7,60.4,96,29.95,10.0,Calm,Calm,-,N/A,,Clear,0,2012-12-09 06:15:00
12:35 AM,61.5,60.4,96,29.95,10.0,Calm,Calm,-,N/A,,Clear,0,2012-12-09 06:35:00
12:55 AM,62.6,61.0,94,29.95,10.0,Calm,Calm,-,N/A,,Clear,0,2012-12-09 06:55:00
1:15 AM,62.8,61.0,94,29.95,10.0,Calm,Calm,-,N/A,,Clear,0,2012-12-09 07:15:00
1:35 AM,62.8,61.2,94,29.95,10.0,Calm,Calm,-,N/A,,Clear,0,2012-12-09 07:35:00
1:55 AM,61.7,61.0,97,29.95,7.0,Calm,Calm,-,N/A,,Clear,0,2012-12-09 07:55:00
2:15 AM,60.8,60.6,99,29.95,7.0,Calm,Calm,-,N/A,,Clear,0,2012-12-09 08:15:00
2:35 AM,60.1,59.7,99,29.95,7.0,Calm,Calm,-,N/A,,Clear,0,2012-12-09 08:35:00
2:55 AM,59.5,59.5,100,29.95,0.5,Calm,Calm,-,N/A,Fog,Fog,0,2012-12-09 08:55:00
3:15 AM,60.3,60.3,100,29.95,2.5,Calm,Calm,-,N/A,,Clear,0,2012-12-09 09:15:00
3:35 AM,60.8,60.8,100,29.95,3.0,Calm,Calm,-,N/A,,Mostly Cloudy,0,2012-12-09 09:35:00
3:55 AM,61.0,61.0,100,29.95,4.0,Calm,Calm,-,N/A,,Mostly Cloudy,0,2012-12-09 09:55:00
4:15 AM,62.4,61.9,98,29.95,10.0,Calm,Calm,-,N/A,,Scattered Clouds,0,2012-12-09 10:15:00
4:35 AM,61.9,61.3,98,29.95,7.0,Calm,Calm,-,N/A,,Mostly Cloudy,0,2012-12-09 10:35:00
4:55 AM,63.0,61.3,94,29.95,10.0,Calm,Calm,-,N/A,,Overcast,0,2012-12-09 10:55:00
5:15 AM,64.2,61.7,91,29.95,10.0,SE,3.5,-,N/A,,Overcast,130,2012-12-09 11:15:00
5:35 AM,64.8,62.1,91,29.96,10.0,SE,4.6,-,N/A,,Overcast,140,2012-12-09 11:35:00
6:15 AM,65.3,62.6,91,29.97,10.0,Calm,Calm,-,N/A,,Overcast,0,2012-12-09 12:15:00
6:35 AM,65.3,63.0,92,29.97,10.0,Calm,Calm,-,N/A,,Overcast,0,2012-12-09 12:35:00
6:55 AM,65.3,63.1,93,29.98,10.0,Calm,Calm,-,N/A,,Overcast,0,2012-12-09 12:55:00
7:15 AM,65.7,63.7,93,29.98,10.0,SE,3.5,-,N/A,,Overcast,130,2012-12-09 13:15:00
7:35 AM,66.6,64.4,93,29.98,10.0,SE,4.6,-,N/A,,Overcast,130,2012-12-09 13:35:00
7:55 AM,67.1,64.8,92,29.98,10.0,SE,5.8,-,N/A,,Overcast,130,2012-12-09 13:55:00
8:15 AM,67.6,64.9,91,29.98,10.0,SE,8.1,-,N/A,,Overcast,140,2012-12-09 14:15:00
8:35 AM,67.8,65.3,92,29.98,10.0,SE,5.8,-,N/A,,Overcast,140,2012-12-09 14:35:00
8:55 AM,68.5,66.2,92,29.98,10.0,SE,6.9,-,N/A,,Overcast,140,2012-12-09 14:55:00
9:35 AM,70.7,67.5,89,29.99,10.0,SSE,5.8,-,N/A,,Overcast,150,2012-12-09 15:35:00
9:55 AM,71.1,68.0,90,29.99,10.0,South,8.1,-,N/A,,Overcast,180,2012-12-09 15:55:00
10:15 AM,71.8,68.4,89,29.99,10.0,South,8.1,-,N/A,,Overcast,170,2012-12-09 16:15:00
10:35 AM,74.3,69.3,84,29.98,10.0,South,9.2,-,N/A,,Overcast,170,2012-12-09 16:35:00
10:55 AM,74.8,69.8,84,29.98,10.0,SSE,8.1,-,N/A,,Overcast,160,2012-12-09 16:55:00
11:15 AM,75.7,70.0,82,29.97,10.0,South,11.5,-,N/A,,Overcast,180,2012-12-09 17:15:00
11:35 AM,76.8,69.8,79,29.96,10.0,South,11.5,-,N/A,,Overcast,190,2012-12-09 17:35:00
11:55 AM,77.4,68.9,75,29.95,10.0,SSW,11.5,16.1,N/A,,Overcast,200,2012-12-09 17:55:00
12:15 PM,78.4,68.7,72,29.93,10.0,South,12.7,18.4,N/A,,Overcast,180,2012-12-09 18:15:00
12:35 PM,77.9,68.2,72,29.92,10.0,SSW,12.7,26.5,N/A,,Mostly Cloudy,200,2012-12-09 18:35:00
12:55 PM,78.4,68.4,71,29.92,10.0,SSW,10.4,24.2,N/A,,Mostly Cloudy,210,2012-12-09 18:55:00
1:15 PM,78.3,68.4,71,29.90,10.0,South,16.1,20.7,N/A,,Overcast,190,2012-12-09 19:15:00
1:35 PM,78.6,67.8,69,29.91,10.0,SW,13.8,18.4,N/A,,Scattered Clouds,220,2012-12-09 19:35:00
1:55 PM,78.6,66.4,66,29.91,10.0,SW,9.2,18.4,N/A,,Mostly Cloudy,220,2012-12-09 19:55:00
2:15 PM,78.1,66.4,67,29.90,10.0,SSW,13.8,-,N/A,,Overcast,200,2012-12-09 20:15:00
2:35 PM,77.2,66.6,70,29.90,10.0,SSW,12.7,-,N/A,,Overcast,210,2012-12-09 20:35:00
2:55 PM,77.2,67.5,72,29.90,10.0,South,8.1,-,N/A,,Overcast,190,2012-12-09 20:55:00
3:15 PM,76.6,68.4,75,29.90,10.0,South,11.5,-,N/A,,Overcast,190,2012-12-09 21:15:00
3:35 PM,76.3,68.5,77,29.90,10.0,SSW,8.1,16.1,N/A,,Scattered Clouds,200,2012-12-09 21:35:00
3:55 PM,76.1,69.1,79,29.90,10.0,SSW,8.1,-,N/A,,Mostly Cloudy,200,2012-12-09 21:55:00
4:15 PM,75.6,69.1,80,29.90,10.0,SSW,6.9,-,N/A,,Mostly Cloudy,200,2012-12-09 22:15:00
4:35 PM,75.2,69.4,82,29.90,10.0,SSW,8.1,-,N/A,,Overcast,200,2012-12-09 22:35:00
4:55 PM,74.8,69.8,84,29.91,10.0,SSW,6.9,-,N/A,,Overcast,210,2012-12-09 22:55:00
5:15 PM,74.3,69.8,86,29.90,10.0,SSW,6.9,-,N/A,,Overcast,200,2012-12-09 23:15:00
5:35 PM,74.3,69.8,86,29.91,10.0,SSW,4.6,-,N/A,,Overcast,200,2012-12-09 23:35:00
5:55 PM,73.9,69.8,87,29.90,10.0,SSW,5.8,-,N/A,,Overcast,200,2012-12-09 23:55:00
6:15 PM,73.2,69.4,88,29.90,10.0,South,4.6,-,N/A,,Mostly Cloudy,180,2012-12-10 00:15:00
6:35 PM,72.1,69.1,90,29.90,10.0,SSE,3.5,-,N/A,,Mostly Cloudy,160,2012-12-10 00:35:00
6:55 PM,72.1,69.1,90,29.90,10.0,South,3.5,-,N/A,,Mostly Cloudy,170,2012-12-10 00:55:00
7:15 PM,71.4,69.3,93,29.90,10.0,SSE,5.8,-,N/A,,Mostly Cloudy,160,2012-12-10 01:15:00
7:35 PM,72.0,69.3,91,29.90,10.0,South,4.6,-,N/A,,Mostly Cloudy,170,2012-12-10 01:35:00
7:55 PM,71.8,69.3,92,29.90,10.0,South,4.6,-,N/A,,Mostly Cloudy,170,2012-12-10 01:55:00
8:15 PM,71.6,68.9,91,29.90,10.0,South,6.9,-,N/A,,Mostly Cloudy,170,2012-12-10 02:15:00
8:35 PM,71.2,68.5,91,29.89,10.0,South,6.9,-,N/A,,Scattered Clouds,170,2012-12-10 02:35:00
8:55 PM,70.7,68.0,91,29.89,10.0,South,6.9,-,N/A,,Clear,170,2012-12-10 02:55:00
9:15 PM,70.9,68.2,91,29.89,10.0,South,8.1,-,N/A,,Clear,180,2012-12-10 03:15:00
9:35 PM,70.9,68.2,91,29.89,10.0,South,9.2,-,N/A,,Clear,180,2012-12-10 03:35:00
9:55 PM,70.9,68.4,92,29.90,10.0,South,8.1,-,N/A,,Mostly Cloudy,180,2012-12-10 03:55:00
10:15 PM,70.7,68.5,93,29.91,10.0,South,8.1,-,N/A,,Overcast,190,2012-12-10 04:15:00
10:35 PM,70.7,68.9,94,29.90,10.0,South,6.9,-,N/A,,Mostly Cloudy,180,2012-12-10 04:35:00
10:55 PM,70.9,68.9,93,29.90,10.0,South,6.9,-,N/A,,Overcast,180,2012-12-10 04:55:00
11:15 PM,70.7,69.1,95,29.90,10.0,South,5.8,-,N/A,,Overcast,170,2012-12-10 05:15:00
11:35 PM,70.9,69.1,94,29.89,10.0,South,5.8,-,N/A,,Overcast,170,2012-12-10 05:35:00
11:55 PM,70.9,69.1,94,29.89,10.0,South,5.8,-,N/A,,Overcast,170,2012-12-10 05:55:00